Ozark, AL

7:30 PM CDT on April 29, 2017 (GMT -0500)
Cairns Army Air Field

Weather History for KOZR - August, 2012

Change the Weather History Date:

Sunday, August 19, 2012

  Actual Average Record
Temperature  
Mean Temperature 79 °F -  
Max Temperature 85 °F 87 °F 98 °F (2011)
Min Temperature 72 °F 67 °F 66 °F (2001)
Cooling Degree Days 14    
Growing Degree Days 29 (Base 50)    
Moisture  
Dew Point 73 °F    
Average Humidity 85    
Maximum Humidity 100    
Minimum Humidity 66    
Precipitation  
Precipitation 0.07 in - - ()
Sea Level Pressure  
Sea Level Pressure 29.90 in    
Wind  
Wind Speed 4 mph (SW)    
Max Wind Speed 10 mph    
Max Gust Speed -    
Visibility 9 miles    
Events Rain    
Averages and records for this station are not official NWS values.
T = Trace of Precipitation, MM = Missing Value Source: NWS Daily Summary

Daily Weather History Graph

Daily Weather History Graph

Search for Another Location

Airport or City:

Trip Planner

Search our weather history database for the weather conditions in past years. The results will help you decide how hot, cold, wet, or windy it might be!

Date:

Astronomy

Aug. 19, 2012 Rise Set
Actual Time 6:11 AM CDT 7:20 PM CDT
Civil Twilight 5:45 AM CDT 7:46 PM CDT
Nautical Twilight 5:15 AM CDT 8:16 PM CDT
Astronomical Twilight 4:44 AM CDT 8:47 PM CDT
Moon 8:11 AM CDT (8/19) 8:25 PM CDT (8/19)
Length of Visible Light 14h 00m
Length of Day
13h 09m
Waxing Crescent, 5% of the Moon is Illuminated
Aug 19
Waxing Crescent
Aug 24
First Quarter
Aug 31
Full
Sep 8
Last Quarter
Sep 15
New

Hourly Weather History & Observations

Time (CDT) Temp. Heat Index Dew Point Humidity Pressure Visibility Wind Dir Wind Speed Gust Speed Precip Events Conditions
12:55 AM 73.2 °F - 70.7 °F 92% 29.90 in 10.0 mi Calm Calm - N/A   Mostly Cloudy
1:55 AM 72.5 °F - 70.5 °F 93% 29.88 in 10.0 mi Calm Calm - N/A   Mostly Cloudy
2:55 AM 72.5 °F - 70.9 °F 95% 29.88 in 10.0 mi Calm Calm - N/A   Mostly Cloudy
3:55 AM 72.3 °F - 70.9 °F 95% 29.88 in 10.0 mi Calm Calm - N/A   Overcast
4:55 AM 72.3 °F - 70.9 °F 95% 29.89 in 10.0 mi Calm Calm - N/A   Mostly Cloudy
5:55 AM 72.5 °F - 71.2 °F 96% 29.91 in 9.0 mi SSW 3.5 mph - 0.00 in Rain Light Rain
6:07 AM 73.4 °F - 71.6 °F 94% 29.91 in 10.0 mi SW 3.5 mph - N/A   Overcast
6:42 AM 73.4 °F - 71.6 °F 94% 29.92 in 10.0 mi Calm Calm - N/A   Light Drizzle
6:55 AM 73.0 °F - 71.6 °F 95% 29.92 in 10.0 mi South 3.5 mph - 0.00 in Rain Light Rain
7:12 AM 73.4 °F - 71.6 °F 94% 29.92 in 3.0 mi Calm Calm - N/A Rain Light Rain
7:15 AM 73.4 °F - 71.6 °F 94% 29.92 in 1.8 mi WSW 4.6 mph - N/A Rain Heavy Rain
7:17 AM 73.4 °F - 71.6 °F 94% 29.92 in 1.2 mi WSW 3.5 mph - N/A Rain Heavy Rain
7:22 AM 73.4 °F - 71.6 °F 94% 29.91 in 1.5 mi Calm Calm - N/A Rain Light Rain
7:24 AM 73.4 °F - 71.6 °F 94% 29.91 in 2.0 mi Calm Calm - N/A Rain Light Rain
7:26 AM 73.4 °F - 71.6 °F 94% 29.91 in 3.0 mi Calm Calm - N/A Rain Light Rain
7:40 AM 73.4 °F - 71.6 °F 94% 29.91 in 10.0 mi Calm Calm - N/A   Overcast
7:51 AM 73.4 °F - 71.6 °F 94% 29.91 in 10.0 mi WSW 3.5 mph - N/A   Light Drizzle
7:55 AM 73.6 °F - 71.8 °F 94% 29.91 in 10.0 mi SW 3.5 mph - 0.07 in   Light Drizzle
8:03 AM 73.4 °F - 71.6 °F 94% 29.91 in 10.0 mi SW 4.6 mph - N/A   Overcast
8:55 AM 75.6 °F - 72.9 °F 91% 29.91 in 10.0 mi WSW 3.5 mph - 0.00 in   Mostly Cloudy
9:55 AM 78.4 °F - 73.4 °F 84% 29.92 in 10.0 mi SW 4.6 mph - N/A   Overcast
10:13 AM 78.8 °F - 73.4 °F 83% 29.92 in 10.0 mi WSW 4.6 mph - N/A   Overcast
10:42 AM 78.8 °F - 75.2 °F 89% 29.92 in 10.0 mi SW 6.9 mph - N/A   Mostly Cloudy
10:47 AM 78.8 °F - 73.4 °F 83% 29.92 in 10.0 mi SW 5.8 mph - N/A   Overcast
10:48 AM 78.8 °F - 73.4 °F 83% 29.92 in 10.0 mi SW 4.6 mph - N/A   Overcast
10:49 AM 78.8 °F - 73.4 °F 83% 29.92 in 10.0 mi WSW 5.8 mph - N/A   Overcast
10:51 AM 78.8 °F - 73.4 °F 83% 29.92 in 10.0 mi SW 6.9 mph - N/A   Overcast
10:55 AM 79.7 °F - 74.1 °F 83% 29.92 in 10.0 mi SW 8.1 mph - N/A   Mostly Cloudy
11:55 AM 81.9 °F 87.5 °F 73.6 °F 76% 29.91 in 10.0 mi WSW 8.1 mph - N/A   Overcast
12:01 PM 82.4 °F 88.2 °F 73.4 °F 74% 29.91 in 10.0 mi SW 6.9 mph - N/A   Overcast
12:06 PM 82.4 °F 88.2 °F 73.4 °F 74% 29.91 in 10.0 mi West 8.1 mph - N/A   Mostly Cloudy
12:16 PM 82.4 °F 88.2 °F 73.4 °F 74% 29.91 in 10.0 mi WSW 8.1 mph - N/A   Overcast
12:32 PM 82.4 °F 88.2 °F 73.4 °F 74% 29.91 in 10.0 mi WSW 9.2 mph - N/A   Mostly Cloudy
12:35 PM 84.2 °F 90.9 °F 73.4 °F 70% 29.91 in 10.0 mi WSW 9.2 mph - N/A   Mostly Cloudy
12:54 PM 84.2 °F 90.9 °F 73.4 °F 70% 29.90 in 10.0 mi West 10.4 mph - N/A   Overcast
12:55 PM 83.8 °F 89.8 °F 72.7 °F 69% 29.90 in 10.0 mi West 10.4 mph - N/A   Overcast
1:02 PM 84.2 °F 90.9 °F 73.4 °F 70% 29.90 in 10.0 mi West 8.1 mph - N/A   Overcast
1:03 PM 84.2 °F 90.9 °F 73.4 °F 70% 29.90 in 10.0 mi West 8.1 mph - N/A   Overcast
1:06 PM 84.2 °F 90.9 °F 73.4 °F 70% 29.90 in 10.0 mi WSW 8.1 mph - N/A Rain Light Rain
1:15 PM 82.4 °F 88.2 °F 73.4 °F 74% 29.90 in 10.0 mi WSW 8.1 mph - N/A Rain Light Rain
1:18 PM 82.4 °F 88.2 °F 73.4 °F 74% 29.90 in 10.0 mi WSW 8.1 mph - N/A Rain Light Rain
1:20 PM 82.4 °F 88.2 °F 73.4 °F 74% 29.90 in 10.0 mi WSW 9.2 mph - N/A   Light Drizzle
1:23 PM 84.2 °F 90.9 °F 73.4 °F 70% 29.90 in 10.0 mi West 8.1 mph - N/A   Overcast
1:48 PM 86.0 °F 93.4 °F 73.4 °F 66% 29.90 in 10.0 mi WSW 10.4 mph - N/A   Overcast
1:49 PM 86.0 °F 93.4 °F 73.4 °F 66% 29.90 in 10.0 mi West 10.4 mph - N/A   Overcast
1:53 PM 84.2 °F 90.9 °F 73.4 °F 70% 29.89 in 10.0 mi SW 8.1 mph - N/A   Overcast
1:54 PM 84.2 °F 90.9 °F 73.4 °F 70% 29.89 in 10.0 mi SW 9.2 mph - N/A   Overcast
1:55 PM 84.7 °F 91.0 °F 72.9 °F 67% 29.89 in 10.0 mi SW 9.2 mph - 0.00 in   Overcast
2:55 PM 83.8 °F 89.5 °F 72.1 °F 68% 29.88 in 10.0 mi West 10.4 mph - N/A   Overcast
3:54 PM 78.8 °F - 71.6 °F 78% 29.88 in 10.0 mi SW 9.2 mph - N/A   Light Drizzle
3:55 PM 79.5 °F - 71.4 °F 76% 29.88 in 10.0 mi SW 8.1 mph - 0.00 in   Light Drizzle
4:24 PM 77.0 °F - 71.6 °F 83% 29.88 in 10.0 mi SW 3.5 mph - N/A   Overcast
4:46 PM 78.8 °F - 71.6 °F 78% 29.88 in 10.0 mi SW 4.6 mph - N/A   Light Drizzle
4:55 PM 77.9 °F - 72.5 °F 83% 29.88 in 10.0 mi SW 4.6 mph - 0.00 in   Light Drizzle
5:03 PM 77.0 °F - 73.4 °F 89% 29.88 in 10.0 mi SW 5.8 mph - N/A   Overcast
5:18 PM 78.8 °F - 73.4 °F 83% 29.88 in 10.0 mi SW 5.8 mph - N/A   Light Drizzle
5:29 PM 78.8 °F - 73.4 °F 83% 29.87 in 10.0 mi WSW 4.6 mph - N/A   Overcast
5:42 PM 78.8 °F - 73.4 °F 83% 29.88 in 10.0 mi SSW 5.8 mph - N/A   Light Drizzle
5:52 PM 77.0 °F - 73.4 °F 89% 29.88 in 10.0 mi SW 5.8 mph - N/A   Mostly Cloudy
5:55 PM 77.7 °F - 73.8 °F 88% 29.88 in 10.0 mi SW 4.6 mph - 0.00 in   Overcast
6:08 PM 77.0 °F - 73.4 °F 89% 29.87 in 10.0 mi SW 4.6 mph - N/A   Light Drizzle
6:28 PM 77.0 °F - 73.4 °F 89% 29.88 in 10.0 mi SSW 5.8 mph - N/A   Overcast
6:54 PM 77.0 °F - 73.4 °F 89% 29.88 in 10.0 mi SW 4.6 mph - N/A   Light Drizzle
6:55 PM 76.8 °F - 74.1 °F 91% 29.88 in 10.0 mi SW 4.6 mph - 0.00 in   Light Drizzle
6:56 PM 77.0 °F - 73.4 °F 89% 29.88 in 10.0 mi SW 3.5 mph - N/A   Overcast
7:55 PM 75.9 °F - 74.1 °F 94% 29.90 in 10.0 mi SSW 5.8 mph - N/A   Partly Cloudy
8:06 PM 75.2 °F - 73.4 °F 94% 29.90 in 10.0 mi SSW 4.6 mph - N/A Rain Light Rain
8:27 PM 75.2 °F - 73.4 °F 94% 29.91 in 10.0 mi SSW 5.8 mph - N/A   Partly Cloudy
8:55 PM 75.4 °F - 73.6 °F 94% 29.91 in 10.0 mi SSW 5.8 mph - 0.00 in   Mostly Cloudy
9:37 PM 75.2 °F - 73.4 °F 94% 29.91 in 10.0 mi SSW 3.5 mph - N/A   Light Drizzle
9:48 PM 75.2 °F - 73.4 °F 94% 29.91 in 10.0 mi SW 4.6 mph - N/A   Scattered Clouds
9:53 PM 75.2 °F - 73.4 °F 94% 29.91 in 10.0 mi SSW 4.6 mph - N/A   Light Drizzle
9:55 PM 74.8 °F - 73.8 °F 96% 29.91 in 10.0 mi SSW 4.6 mph - 0.00 in   Light Drizzle
10:18 PM 75.2 °F - 73.4 °F 94% 29.91 in 10.0 mi Calm Calm - N/A   Clear
10:55 PM 74.3 °F - 73.8 °F 98% 29.91 in 10.0 mi Calm Calm - 0.00 in   Scattered Clouds
11:10 PM 75.2 °F - 73.4 °F 94% 29.91 in 10.0 mi Calm Calm - N/A   Light Drizzle
11:32 PM 73.4 °F - 73.4 °F 100% 29.91 in 10.0 mi South 3.5 mph - N/A   Mostly Cloudy
11:53 PM 73.4 °F - 73.4 °F 100% 29.92 in 10.0 mi SSW 5.8 mph - N/A   Light Drizzle
11:55 PM 74.1 °F - 73.2 °F 97% 29.92 in 10.0 mi SSW 4.6 mph - 0.00 in   Light Drizzle